Orbital Elements at Epoch 2459200.5 (2020-Dec-17.0) TDB
Reference: JPL 23 (heliocentric ecliptic J2000)
Element | Value | Uncertainty (1-sigma) | Units |
e | .2226855848157122 | 4.3266e-08 | |
a | 2.375838368599817 | 1.1441e-08 | au |
q | 1.846773412060559 | 1.0138e-07 | au |
i | 2.670461988498275 | 4.7221e-06 | deg |
node | 33.69701600691531 | 8.1415e-05 | deg |
peri | 300.9099746903536 | 8.2876e-05 | deg |
M | 300.307934229801 | 2.2221e-05 | deg |
tp | 2459422.287912079287 (2021-Jul-26.78791208) | 8.3694e-05 | TDB |
period | 1337.592313456254 3.66 | 9.6616e-06 2.645e-08 | d yr |
n | .2691403026007101 | 1.944e-09 | deg/d |
Q | 2.904903325139075 | 1.3988e-08 | au |
|
| | Orbit Determination Parameters
Additional Information
|